www.pogodaiklimat.ru

Погода и климат >> Архив погоды >> Россия >> Якутия >> Оймякон


АРХИВ ПОГОДЫ в Оймяконе

Время (UTC), дата Ветер
(напр.,м/с)
 
Видим.   Явления Облачность Т
(С)
Тd
(С)
f
(%)
Тe
(С)
Тes
(С)
Комфортность P
(гПа)
Po
(гПа)
Тmin
(С)
Tmax
(С)
R
(мм)
R24
(мм)
S
(см)
03 5.12 штиль 0 50 км 8/0
[Ac trans Ci fib]
-36.6 -38.7 81 -37 -37 опасность
обморожения
1026.0 922.7
06 5.12 штиль 0 4000 м слабый снег 9/0
[Ac trans Cs]
-36.5 -38.7 80 -37 -37 опасность
обморожения
1026.9 923.5
09 5.12 З 1 20 км слабый снег 10/0
[Ac trans Cs]
-39.0 -41.1 80 -44 -44 опасность
обморожения
1029.0 924.4 -35.1 0.0
12 5.12 Ю 1 50 км 9/0
[Cs]
-40.0 -42.1 80 -45 -45 опасность
обморожения
1029.9 924.8
15 5.12 штиль 0 50 км 9/0
[Cs]
-40.7 -42.6 82 -41 -41 опасность
обморожения
1031.1 925.6
18 5.12 штиль 0 50 км слабый снег 10/0
[Cs]
-39.0 -41.1 80 -39 -39 опасность
обморожения
1031.1 926.3
21 5.12 штиль 0 50 км слабый снег 10/0
[Cs]
-37.1 -39.5 78 -37 -37 опасность
обморожения
1030.6 926.6 -40.9 0.0 21
00 6.12 штиль 0 20 км слабый снег 10/0
[Ac trans Cs]
-36.4 -38.7 79 -36 -36 опасность
обморожения
1031.1 927.3
03 6.12 штиль 0 50 км в посл. час снег 4/0
[Ci fib]
-38.6 -40.7 80 -39 -39 опасность
обморожения
1032.8 928.0
06 6.12 З 1 50 км {снег} 8/0
[Ac trans Ci sp]
-42.1 -44.3 79 -48 -48 опасность
обморожения
1035.1 928.5
09 6.12 Ю 1 20 км дым 4/0
[Ci fib]
-44.1 -46.3 79 -50 -50 опасность
обморожения
1037.2 929.5 -36.4 0.8
12 6.12 штиль 0 50 км 4/0
[Ci fib]
-44.6 -46.9 78 -45 -45 опасность
обморожения
1037.7 929.8
15 6.12 штиль 0 50 км 4/0
[Ci fib]
-44.6 -46.9 78 -45 -45 опасность
обморожения
1037.7 929.8
18 6.12 штиль 0 50 км 4/0
[Ci fib]
-47.6 -50.5 72 -48 -48 опасность
обморожения
1039.5 930.1
21 6.12 штиль 0 50 км 4/0
[Ci fib]
-48.1 -50.5 76 -48 -48 опасность
обморожения
1039.6 929.9 -48.3 21
00 7.12 З 1 50 км дым 3/0
[Ci fib]
-48.8 -51.6 72 -55 -55 опасность
обморожения
1040.0 929.8 -48.9
03 7.12 З 1 50 км дым 4/0
[Ci fib]
-45.8 -48.5 74 -52 -52 опасность
обморожения
1038.3 929.7
06 7.12 штиль 0 50 км 3/0
[Ci fib]
-46.5 -49.4 72 -47 -47 опасность
обморожения
1038.7 929.8
09 7.12 штиль 0 10 км дым 4/0
[Ci fib]
-47.8 -50.5 73 -48 -48 опасность
обморожения
1039.8 930.1 -45.4
12 7.12 штиль 0 10 км дым 5/0
[Ci fib]
-47.2 -49.4 78 -47 -47 опасность
обморожения
1039.8 930.5
15 7.12 штиль 0 20 км дым 3/0
[Ci fib]
-47.6 -50.5 72 -48 -48 опасность
обморожения
1040.3 930.8
18 7.12 штиль 0 4000 м дымка 6/0
[Ci fib]
-46.6 -49.4 73 -47 -47 опасность
обморожения
1040.0 931.0
21 7.12 З 1 10 км дым 4/0
[Ci fib]
-47.1 -49.4 77 -53 -53 опасность
обморожения
1040.7 931.4 -48.0 0.0 21
00 8.12 штиль 0 10 км дым 3/0
[Ci fib]
-47.8 -50.5 73 -48 -48 опасность
обморожения
1041.8 931.9 -48.2
03 8.12 штиль 0 20 км дым 3/0
[Ci fib]
-46.8 -49.4 75 -47 -47 опасность
обморожения
1042.3 932.8
06 8.12 штиль 0 10 км дым ясно -49.0 -51.6 74 -49 -49 опасность
обморожения
1044.2 933.6
09 8.12 штиль 0 4000 м дымка ясно -49.6 -51.6 79 -50 -50 опасность
обморожения
1045.7 934.7 -46.3
12 8.12 штиль 0 20 км дым ясно -50.0 -53.0 70 -50 -50 опасность
обморожения
1047.0 935.6
15 8.12 штиль 0 20 км дым ясно -50.8 -53.0 77 -51 -51 опасность
обморожения
1048.5 936.5
18 8.12 штиль 0 50 км ясно -50.8 -53.0 77 -51 -51 опасность
обморожения
1049.7 937.5
21 8.12 штиль 0 50 км ясно -50.9 -53.0 78 -51 -51 опасность
обморожения
1050.0 937.8 -51.2 21
00 9.12 СВ 1 4000 м дымка ясно -51.1 -53.0 80 -58 -58 опасность
обморожения
1051.5 939.2 -51.3
03 9.12 штиль 0 20 км дым ясно -49.2 -51.6 76 -49 -49 опасность
обморожения
1050.3 939.0
06 9.12 штиль 0 50 км дым 3/0
[Ci fib]
-50.3 -53.0 73 -50 -50 опасность
обморожения
1051.0 939.0
09 9.12 штиль 0 20 км дым 3/0
[Ci fib]
-49.9 -53.0 70 -50 -50 опасность
обморожения
1050.9 939.1 -48.7
12 9.12 штиль 0 10 км дым ясно -49.6 -51.6 79 -50 -50 опасность
обморожения
1045.4 939.1
15 9.12 штиль 0 10 км дым ясно -49.7 -51.6 80 -50 -50 опасность
обморожения
1050.4 938.9
18 9.12 штиль 0 10 км дым 6/0
[Ci fib]
-48.5 -50.5 79 -49 -49 опасность
обморожения
1049.6 938.6
21 9.12 штиль 0 10 км дым 10/0
[Cs]
-47.7 -50.5 73 -48 -48 опасность
обморожения
1049.4 939.0 -49.9 21
00 10.12 штиль 0 10 км дым 10/0
[Cs]
-46.5 -49.4 72 -47 -47 опасность
обморожения
1049.3 939.9
03 10.12 штиль 0 20 км дым 8/0
[Cs]
-45.8 -48.5 74 -46 -46 опасность
обморожения
1049.8 940.0
06 10.12 штиль 0 10 км дым 4/0
[Ci fib]
-47.9 -50.5 74 -48 -48 опасность
обморожения
1052.1 941.2
09 10.12 штиль 0 10 км дым 3/0
[Ci fib]
-50.2 -53.0 72 -50 -50 опасность
обморожения
1054.8 942.6 -45.4
12 10.12 штиль 0 20 км ледяные иглы 3/0
[Ci fib]
-51.4 -54.4 70 -51 -51 опасность
обморожения
1057.2 944.0
15 10.12 штиль 0 20 км ледяные иглы 3/0
[Ci fib]
-51.3 -54.4 69 -51 -51 опасность
обморожения
1057.8 944.5
18 10.12 штиль 0 20 км слабый снег 10/0
[Ac trans Cs]
-48.9 -51.6 73 -49 -49 опасность
обморожения
1057.0 945.1
21 10.12 штиль 0 50 км слабый снег 10/0
[Ac trans Cs]
-47.3 -49.4 79 -47 -47 опасность
обморожения
1057.1 945.8 -51.8 0.3 21
00 11.12 штиль 0 50 км в посл. час снег 10/0
[Ac trans Cs]
-44.5 -46.9 77 -45 -45 опасность
обморожения
1056.0 946.2
03 11.12 штиль 0 20 км дым 9/0
[Ac trans Cs]
-43.7 -46.1 77 -44 -44 опасность
обморожения
1055.3 946.0
06 11.12 штиль 0 10 км слабый снег 10/0
[Ac trans Cs]
-42.7 -45.5 74 -43 -43 опасность
обморожения
1054.8 946.0
09 11.12 штиль 0 10 км слабый снег 10/0
[Ac trans Cs]
-41.7 -44.3 76 -42 -42 опасность
обморожения
1053.6 945.4 -41.6 0.2
12 11.12 штиль 0 10 км слабый снег 10/0
[Ac As]
-40.8 -43.8 73 -41 -41 опасность
обморожения
1052.6 944.7
15 11.12 штиль 0 10 км слабый снег 10/0
[Ac As]
-39.7 -41.6 82 -40 -40 опасность
обморожения
1050.8 943.7
18 11.12 штиль 0 10 км слабый снег 10/0
[Ac As Cs]
-39.0 -41.1 80 -39 -39 опасность
обморожения
1050.3 943.5
21 11.12 штиль 0 20 км слабый снег 10/0
[Ac trans Cs]
-39.5 -41.6 80 -40 -40 опасность
обморожения
1050.2 943.2 -41.8 1 21
00 12.12 штиль 0 50 км {снег} 10/0
[Ac trans Cs]
-42.1 -44.3 79 -42 -42 опасность
обморожения
1051.1 942.9 -42.1

 

Местоположение метеостанции Оймякон (Якутия, Россия): широта 63.25 долгота 143.10 высота над уровнем моря 740 м.

В архиве по умолчанию представлена погода в Оймяконе за последнюю неделю. Архивные данные за месяц целиком и за предыдущие месяцы, начиная с января 2011 года, Вы можете получить, выбрав интересующий диапазон дат из раскрывающегося списка и нажав кнопку "Ввод!".

Внимание! Время в таблицах - всемирное. Для получения местного времени необходимо прибавить поправку, которая в Оймяконе равна 10 ч.

Смотрите также архив погоды в соседних городах и на ближайших метеорологических станциях:

Погода в Агаякане (Якутия, Россия) (71 км)
Погода в Юртах (Якутия, Россия) (110 км)
Погода в Делянкире (Якутия, Россия) (140 км)
Погода в Усть-Нере (Якутия, Россия) (142 км)
Погода в Восточной (Якутия, Россия) (175 км)
Погода в Сусумане (Магаданская область, Россия) (258 км)
Погода в Колымской (Магаданская область, Россия) (278 км)
Погода в Уеге (Хабаровский край, Россия) (282 км)
Погода в Теплом Ключе (Якутия, Россия) (322 км)
Погода в Ягодной (Магаданская область, Россия) (340 км)

Пояснения к столбцам:

Ветер - указаны скорость ветра в м/с - средняя за 10 мин, порывы в срок и между сроками (в фигурных скобках) и направление, откуда дует ветер: С - северный, СВ - северо-восточный, В - восточный, ЮВ - юго-восточный, Ю - южный, ЮЗ - юго-западный, З - западный, СЗ - северо-западный.
Видимость - горизонтальная дальность видимости в метрах или километрах. При видимости от 1 до 10 км при отсутствии осадков обычно наблюдается дымка, при ухудшении видимости до 1 км и менее - туман. В сухую погоду видимость может ухудшаться дымом, пылью или мглою.
Явления - указаны атмосферные явления, наблюдавшиеся в срок или в последний час перед сроком; фигурными скобками обозначены явления, наблюдавшиеся между сроками (за 1-3 часа до срока); квадратными скобками обозначены град или гололедные отложения с указанием их диаметра в мм.
Облачность - указаны через наклонную черту общая и нижняя облачность в баллах и высота нижней границы облаков в метрах; квадратными скобками обозначены формы облаков: Ci - перистые, Cs - перисто-слоистые, Cc - перисто-кучевые, Ac - высококучевые, As - высокослоистые, Sc - слоисто-кучевые, Ns - слоисто-дождевые, Cu - кучевые, Cb - кучево-дождевые. Подробнее классификацию облаков см. в Атласе облаков (PDF).
T - Температура воздуха - температура, измеренная на высоте 2 м над землей.
Td - Температура точки росы - температура, при понижении до которой содержащийся в воздухе водяной пар достигнет насыщения.
f - Относительная влажность воздуха - влажноcть воздуха, измеренная на высоте 2 м над землей.
Te - Эффективная температура - температура, которую ощущает одетый по сезону человек в тени. Характеристика душности погоды. При расчете учитывается влияние влажности воздуха и скорости ветра на теплоощущения человека.
Tes - Эффективная температура на солнце - температура, которую ощущает человек, с поправкой на солнечный нагрев. Характеристика знойности погоды. Зависит от высоты солнца над горизонтом, облачности и скорости ветра. Ночью, в пасмурную погоду, а также при ветре 12 м/с и более поправка равна нулю.
P - Атмосферное давление - приведенное к уровню моря атмосферное давление.
Po - Атмосферное давление - измеренное на уровне метеостанции атмосферное давление.
Tmin - Минимальная температура - минимум температуры воздуха на высоте 2 м над землей.
Tmax - Максимальная температура - максимум температуры воздуха на высоте 2 м над землей.
R - Количество осадков - Количество выпавших осадков за период времени, мм. При наведении курсора мыши на число - период времени, за который выпало указанное количество осадков.
R24 - Количество осадков - Количество выпавших осадков за 24 часа, мм.
S - Снежный покров - Высота снежного покрова, см. При наведении курсора мыши на число - состояние снежного покрова и степень покрытия местности в баллах.